User: anonymous   Login
Location: Unspecified
(0.0000°N, 0.0000°E)
Time: 12:39:35
(UTC+00:00)
Language:

Alouette 1 - Orbit

View from above orbital plane
View from above orbital plane
View from above satellite
View from above satellite

Ground track
Ground track

The orbit data is extracted from the following two-line orbital elements,

1 00424U 62049A   14329.46419073  .00000143  00000-0  15542-3 0  5741
2 00424 080.4666 111.2304 0022422 325.7529 096.5967 13.68972156603570
Epoch (UTC): 25 November 2014 11:08:26
Eccentricity: 0.0022422
inclination: 80.4666°
perigee height: 987 km
apogee height: 1020 km
right ascension of ascending node: 111.2304°
argument of perigee: 325.7529°
revolutions per day: 13.68972156
mean anomaly at epoch: 96.5967°
orbit number at epoch: 60357

The dashed part of the orbit path shows where the satellite is in the earth's shadow,  

DLR